GW0353 Weather Reports


time (UTC)temp
F
wind
direction
speed
knots
gust
knots
rain 1hr
in
rain 24hr
in
rain mn
in
humidity
%
barometer
mb
20260831105622 45 0 0.0 0.0 0.00 0.00 0.00 77 1022.7
20260831105058 45 0 0.0 0.0 0.00 0.00 0.00 76 1022.8
20260831104605 45 0 0.0 0.0 0.00 0.00 0.00 77 1022.8
20260831104058 45 0 0.0 0.0 0.00 0.00 0.00 75 1022.8
20260831103559 46 0 0.0 0.0 0.00 0.00 0.00 74 1022.7
20260831103111 46 0 0.0 1.7 0.00 0.00 0.00 74 1022.8
20260831102557 46 174 0.0 1.7 0.00 0.00 0.00 73 1022.9
20260831102058 47 169 0.0 0.0 0.00 0.00 0.00 72 1022.9
20260831101604 47 0 0.0 0.0 0.00 0.00 0.00 73 1023.0
20260831101058 47 0 0.0 0.9 0.00 0.00 0.00 71 1022.9
20260831100556 47 0 0.0 1.7 0.00 0.00 0.00 69 1023.0
20260831100110 47 0 0.0 1.7 0.00 0.00 0.00 68 1022.9
20260831095557 47 0 0.0 1.7 0.00 0.00 0.00 67 1022.9
20260831095057 47 172 0.0 0.9 0.00 0.00 0.00 67 1022.9
20260831094608 47 0 0.0 0.9 0.00 0.00 0.00 66 1022.9
20260831094058 47 167 0.0 0.9 0.00 0.00 0.00 67 1022.9
20260831093557 47 0 0.0 0.9 0.00 0.00 0.00 66 1023.0
20260831093154 47 0 0.0 0.0 0.00 0.00 0.00 68 1023.0
20260831092558 47 0 0.0 0.0 0.00 0.00 0.00 67 1022.9
20260831092058 47 0 0.0 0.9 0.00 0.00 0.00 65 1022.9
20260831091606 48 0 0.0 0.9 0.00 0.00 0.00 63 1022.9
20260831091058 48 0 0.0 0.9 0.00 0.00 0.00 62 1022.9
20260831090558 49 0 0.0 0.0 0.00 0.00 0.00 64 1022.8
20260831090108 49 0 0.0 0.9 0.00 0.00 0.00 63 1022.8
20260831085558 49 0 0.0 1.7 0.00 0.00 0.00 63 1022.9
20260831085058 49 172 0.0 1.7 0.00 0.00 0.00 62 1023.1
20260831084652 49 170 0.0 0.9 0.00 0.00 0.00 62 1023.1
20260831084057 49 207 0.0 0.0 0.00 0.00 0.00 62 1023.2
20260831083557 50 0 0.0 0.0 0.00 0.00 0.00 61 1023.1
20260831083109 50 0 0.0 0.0 0.00 0.00 0.00 61 1023.1
20260831082601 50 0 0.0 0.0 0.00 0.00 0.00 61 1023.3
20260831082057 50 0 0.0 0.0 0.00 0.00 0.00 60 1023.2
20260831081610 50 0 0.0 2.6 0.00 0.00 0.00 60 1023.2
20260831081058 50 0 0.0 2.6 0.00 0.00 0.00 61 1023.4
20260831080559 50 255 0.0 2.6 0.00 0.00 0.00 60 1023.5
20260831080125 50 0 0.0 0.0 0.00 0.00 0.00 59 1023.3
20260831075558 50 0 0.0 2.6 0.00 0.00 0.00 58 1023.2
20260831075057 50 0 0.0 2.6 0.00 0.00 0.00 57 1023.3
20260831074605 50 143 0.0 2.6 0.00 0.00 0.00 56 1023.3
20260831074057 50 0 0.9 2.6 0.00 0.00 0.00 56 1023.5
20260831073557 50 176 0.0 1.7 0.00 0.00 0.00 58 1023.5
20260831073108 50 168 0.0 0.9 0.00 0.00 0.00 56 1023.5
20260831072600 50 0 0.0 0.9 0.00 0.00 0.00 58 1023.5
20260831072058 50 0 0.0 0.9 0.00 0.00 0.00 57 1023.5
20260831071612 50 0 0.0 0.9 0.00 0.00 0.00 58 1023.4
20260831071057 51 0 0.0 0.9 0.00 0.00 0.00 57 1023.5
20260831070557 51 0 0.0 0.9 0.00 0.00 0.00 58 1023.4
20260831070118 51 0 0.0 0.0 0.00 0.00 0.00 57 1023.4
20260831065557 51 0 0.0 1.7 0.00 0.00 0.00 57 1023.4
20260831065058 51 0 0.0 2.6 0.00 0.00 0.00 58 1023.5
20260831064606 50 170 0.9 2.6 0.00 0.00 0.00 57 1023.5
20260831064059 51 0 0.9 2.6 0.00 0.00 0.00 53 1023.4
20260831063558 52 257 0.9 2.6 0.00 0.00 0.00 54 1023.5
20260831063114 52 172 0.9 1.7 0.00 0.00 0.00 55 1023.5
20260831062559 52 167 0.0 1.7 0.00 0.00 0.00 53 1023.5
20260831062058 52 0 0.0 0.9 0.00 0.00 0.00 53 1023.4
20260831061605 52 0 0.0 1.7 0.00 0.00 0.00 52 1023.5
20260831061058 53 226 0.9 1.7 0.00 0.00 0.00 49 1023.2
20260831060557 53 164 0.0 1.7 0.00 0.00 0.00 48 1023.3
20260831060127 54 167 0.0 0.9 0.00 0.00 0.00 48 1023.1
20260831055602 54 0 0.0 0.9 0.00 0.00 0.00 46 1023.1
20260831055057 54 0 0.0 1.7 0.00 0.00 0.00 46 1022.9
20260831054608 54 0 0.0 1.7 0.00 0.00 0.00 46 1023.1
20260831054058 55 0 0.0 1.7 0.00 0.00 0.00 47 1023.0
20260831053557 55 0 0.0 0.0 0.00 0.00 0.00 45 1023.0
20260831053107 55 0 0.0 0.0 0.00 0.00 0.00 45 1023.0
20260831052558 55 0 0.0 0.9 0.00 0.00 0.00 46 1022.9
20260831052101 56 0 0.0 0.9 0.00 0.00 0.00 44 1023.0
20260831051604 56 0 0.0 0.9 0.00 0.00 0.00 43 1023.0
20260831051057 56 0 0.0 3.5 0.00 0.00 0.00 44 1023.1
20260831050557 56 176 0.0 3.5 0.00 0.00 0.00 44 1023.1
20260831050118 57 217 1.7 3.5 0.00 0.00 0.00 43 1023.2
20260831045558 57 231 0.0 1.7 0.00 0.00 0.00 43 1023.1
20260831045058 57 187 0.0 0.9 0.00 0.00 0.00 42 1023.2
20260831044610 57 179 0.0 0.9 0.00 0.00 0.00 43 1023.2
20260831044058 57 0 0.0 0.9 0.00 0.00 0.00 43 1023.3
20260831043559 57 0 0.0 0.9 0.00 0.00 0.00 43 1023.3
20260831043105 57 0 0.0 1.7 0.00 0.00 0.00 43 1023.3
20260831042600 58 0 0.0 1.7 0.00 0.00 0.00 44 1023.2
20260831042058 59 0 0.0 1.7 0.00 0.00 0.00 43 1023.3
20260831041607 59 0 0.0 0.9 0.00 0.00 0.00 41 1023.2
20260831041059 60 0 0.0 0.9 0.00 0.00 0.00 40 1023.1
20260831040559 60 0 0.0 0.9 0.00 0.00 0.00 40 1023.1
20260831040107 61 0 0.0 1.7 0.00 0.00 0.00 39 1023.1
20260831035557 61 176 0.0 1.7 0.00 0.00 0.00 40 1023.1
20260831035059 61 169 0.0 0.9 0.00 0.00 0.00 39 1023.1
20260831034613 63 0 0.0 4.3 0.00 0.00 0.00 38 1023.1
20260831034057 63 0 0.0 4.3 0.00 0.00 0.00 37 1022.9
20260831033601 64 0 1.7 4.3 0.00 0.00 0.00 36 1022.9
20260831033106 64 0 1.7 4.3 0.00 0.00 0.00 36 1022.7
20260831032558 65 53 2.6 7.8 0.00 0.00 0.00 36 1022.6
20260831032058 65 316 2.6 7.8 0.00 0.00 0.00 36 1022.5
20260831031607 65 56 1.7 6.1 0.00 0.00 0.00 37 1022.5
20260831031100 65 117 1.7 6.1 0.00 0.00 0.00 37 1022.4
20260831030600 65 68 3.5 7.0 0.00 0.00 0.00 37 1022.3
20260831030107 65 157 3.5 7.0 0.00 0.00 0.00 37 1022.2
20260831025558 65 160 1.7 5.2 0.00 0.00 0.00 37 1022.3
20260831025057 65 105 0.9 6.1 0.00 0.00 0.00 38 1021.9
20260831024605 66 20 2.6 6.1 0.00 0.00 0.00 37 1022.0
20260831024102 66 58 0.0 7.0 0.00 0.00 0.00 40 1021.8
20260831023557 65 0 2.6 7.0 0.00 0.00 0.00 39 1021.7
20260831023106 66 118 0.0 1.7 0.00 0.00 0.00 40 1021.7
20260831022558 67 48 0.0 1.7 0.00 0.00 0.00 38 1021.6
20260831022058 67 0 0.0 0.9 0.00 0.00 0.00 36 1021.6
20260831021609 67 0 0.0 0.0 0.00 0.00 0.00 34 1021.5
20260831021058 67 0 0.0 0.9 0.00 0.00 0.00 34 1021.5
20260831020557 68 0 0.0 1.7 0.00 0.00 0.00 35 1021.5
20260831020108 69 158 0.0 1.7 0.00 0.00 0.00 35 1021.4
20260831015557 70 0 0.0 0.9 0.00 0.00 0.00 33 1021.4
20260831015057 71 0 0.0 0.9 0.00 0.00 0.00 32 1021.5
20260831014623 71 0 0.0 0.9 0.00 0.00 0.00 30 1021.5
20260831014058 73 0 0.0 0.9 0.00 0.00 0.00 29 1021.5
20260831013558 73 0 0.0 2.6 0.00 0.00 0.00 23 1021.5
20260831013109 73 0 0.0 4.3 0.00 0.00 0.00 23 1021.5
20260831012558 73 0 1.7 4.3 0.00 0.00 0.00 23 1021.5
20260831012058 73 159 0.9 4.3 0.00 0.00 0.00 23 1021.6
20260831011609 74 243 0.9 4.3 0.00 0.00 0.00 23 1021.5
20260831011057 74 144 0.9 4.3 0.00 0.00 0.00 23 1021.7
20260831010601 74 163 2.6 5.2 0.00 0.00 0.00 23 1021.7
20260831010109 74 0 2.6 6.1 0.00 0.00 0.00 23 1021.6
20260831005557 73 152 1.7 6.1 0.00 0.00 0.00 23 1021.7
20260831005058 73 161 2.6 6.1 0.00 0.00 0.00 23 1021.7
20260831004627 73 184 2.6 6.1 0.00 0.00 0.00 24 1021.7
20260831004056 73 162 3.5 5.2 0.00 0.00 0.00 24 1021.7
20260831003600 73 148 2.6 4.3 0.00 0.00 0.00 24 1021.8
20260831003112 73 148 2.6 4.3 0.00 0.00 0.00 24 1021.7
20260831002557 73 120 0.9 5.2 0.00 0.00 0.00 24 1021.6
20260831002100 73 135 1.7 6.1 0.00 0.00 0.00 24 1021.8
20260831001633 73 124 2.6 6.1 0.00 0.00 0.00 24 1021.8
20260831001058 73 117 2.6 6.1 0.00 0.00 0.00 24 1021.7
20260831000558 73 155 3.5 8.7 0.00 0.00 0.00 23 1021.8
20260831000115 73 89 4.3 8.7 0.00 0.00 0.00 23 1021.7
20260830235559 73 138 5.2 8.7 0.00 0.00 0.00 23 1021.8
20260830235100 74 164 2.6 6.1 0.00 0.00 0.00 23 1021.9
20260830234613 74 133 1.7 6.1 0.00 0.00 0.00 23 1021.7
20260830234058 74 174 1.7 6.1 0.00 0.00 0.00 22 1021.8
20260830233558 74 143 3.5 6.1 0.00 0.00 0.00 22 1021.8
20260830233132 74 120 2.6 6.1 0.00 0.00 0.00 23 1021.8
20260830232558 74 155 0.9 6.1 0.00 0.00 0.00 21 1022.0
20260830232058 74 87 3.5 6.1 0.00 0.00 0.00 21 1021.9
20260830231614 74 159 1.7 7.0 0.00 0.00 0.00 22 1022.0
20260830231101 75 125 2.6 7.8 0.00 0.00 0.00 21 1021.9
20260830230559 75 139 0.9 11.3 0.00 0.00 0.00 22 1022.0
20260830230133 76 136 4.3 11.3 0.00 0.00 0.00 21 1022.0
20260830225557 76 130 2.6 7.8 0.00 0.00 0.00 22 1022.2
20260830225058 76 282 0.9 9.6 0.00 0.00 0.00 20 1022.2
20260830224615 75 63 2.6 9.6 0.00 0.00 0.00 21 1022.2
20260830224058 76 54 2.6 9.6 0.00 0.00 0.00 21 1022.3
20260830223558 75 101 0.0 8.7 0.00 0.00 0.00 22 1022.4
20260830223112 75 68 5.2 8.7 0.00 0.00 0.00 19 1022.4
20260830222558 75 61 3.5 8.7 0.00 0.00 0.00 21 1022.4
20260830222059 75 41 0.0 11.3 0.00 0.00 0.00 21 1022.6
20260830221607 75 42 3.5 11.3 0.00 0.00 0.00 20 1022.5
20260830221058 75 85 4.3 11.3 0.00 0.00 0.00 21 1022.6
20260830220558 75 107 6.1 11.3 0.00 0.00 0.00 20 1022.6
20260830220107 75 162 3.5 8.7 0.00 0.00 0.00 20 1022.6
20260830215557 76 149 3.5 12.2 0.00 0.00 0.00 21 1022.7
20260830215057 76 113 1.7 12.2 0.00 0.00 0.00 21 1022.8
20260830214607 76 77 4.3 10.4 0.00 0.00 0.00 21 1022.8
20260830214059 76 63 4.3 11.3 0.00 0.00 0.00 21 1022.7
20260830213558 76 174 5.2 13.0 0.00 0.00 0.00 20 1022.8
20260830213103 75 203 5.2 13.0 0.00 0.00 0.00 20 1022.9
20260830212558 75 25 6.1 13.0 0.00 0.00 0.00 21 1022.9
20260830212058 75 55 5.2 10.4 0.00 0.00 0.00 22 1022.9
20260830211605 74 126 4.3 12.2 0.00 0.00 0.00 21 1022.9
20260830211057 74 94 5.2 12.2 0.00 0.00 0.00 21 1023.0
20260830210558 74 84 4.3 10.4 0.00 0.00 0.00 22 1022.9
20260830210109 74 134 4.3 10.4 0.00 0.00 0.00 22 1023.1
20260830205557 74 87 4.3 14.8 0.00 0.00 0.00 21 1023.1
20260830205058 74 120 5.2 14.8 0.00 0.00 0.00 21 1023.1
20260830204606 74 139 7.0 14.8 0.00 0.00 0.00 22 1023.1
20260830204058 74 70 3.5 10.4 0.00 0.00 0.00 22 1023.1
20260830203558 74 117 4.3 10.4 0.00 0.00 0.00 22 1023.3
20260830203110 74 139 5.2 9.6 0.00 0.00 0.00 23 1023.3
20260830202601 74 186 2.6 12.2 0.00 0.00 0.00 23 1023.2
20260830202058 74 108 3.5 12.2 0.00 0.00 0.00 23 1023.3
20260830201609 74 53 4.3 9.6 0.00 0.00 0.00 22 1023.5
20260830201057 74 77 3.5 13.9 0.00 0.00 0.00 23 1023.6
20260830200558 73 136 3.5 13.9 0.00 0.00 0.00 24 1023.5
20260830200106 73 129 4.3 13.0 0.00 0.00 0.00 22 1023.5
20260830195557 73 68 5.2 13.9 0.00 0.00 0.00 23 1023.7
20260830195058 73 189 5.2 13.9 0.00 0.00 0.00 24 1023.6
20260830194616 73 110 4.3 12.2 0.00 0.00 0.00 24 1023.8
20260830194058 73 169 5.2 14.8 0.00 0.00 0.00 23 1023.7
20260830193601 73 172 6.1 14.8 0.00 0.00 0.00 22 1023.7
20260830193109 74 167 3.5 12.2 0.00 0.00 0.00 22 1023.7
20260830192559 73 113 2.6 10.4 0.00 0.00 0.00 24 1023.7
20260830192058 73 77 4.3 10.4 0.00 0.00 0.00 24 1023.8
20260830191610 72 118 2.6 10.4 0.00 0.00 0.00 24 1023.8
20260830191057 72 110 4.3 14.8 0.00 0.00 0.00 22 1023.9
20260830190559 73 108 5.2 14.8 0.00 0.00 0.00 24 1023.9
20260830190106 73 75 4.3 14.8 0.00 0.00 0.00 22 1023.9
20260830185602 73 81 4.3 12.2 0.00 0.00 0.00 23 1024.0
20260830185057 73 125 3.5 14.8 0.00 0.00 0.00 23 1024.0
20260830184602 73 58 2.6 14.8 0.00 0.00 0.00 22 1024.1
20260830184057 74 52 4.3 14.8 0.00 0.00 0.00 22 1024.0
20260830183600 74 273 0.9 6.1 0.00 0.00 0.00 23 1024.1
20260830183110 75 6 0.9 5.2 0.00 0.00 0.00 24 1024.1
20260830182600 75 0 0.9 5.2 0.00 0.00 0.00 23 1024.2
20260830182058 74 274 1.7 5.2 0.00 0.00 0.00 23 1024.2
20260830181606 73 266 0.9 6.1 0.00 0.00 0.00 24 1024.4
20260830181059 73 36 0.9 6.1 0.00 0.00 0.00 23 1024.4
20260830180558 72 288 2.6 6.1 0.00 0.00 0.00 23 1024.4
20260830180109 72 217 0.9 3.5 0.00 0.00 0.00 22 1024.6
20260830175558 71 295 0.9 4.3 0.00 0.00 0.00 23 1024.5
20260830175058 72 56 0.9 4.3 0.00 0.00 0.00 23 1024.4
20260830174617 72 29 0.0 3.5 0.00 0.00 0.00 24 1024.6
20260830174101 70 0 0.9 3.5 0.00 0.00 0.00 23 1024.6
20260830173559 69 39 1.7 3.5 0.00 0.00 0.00 24 1024.7
20260830173107 68 56 0.0 3.5 0.00 0.00 0.00 23 1024.6
20260830172558 68 61 1.7 2.6 0.00 0.00 0.00 25 1024.6
20260830172058 68 88 0.0 3.5 0.00 0.00 0.00 25 1024.6
20260830171609 67 316 0.9 3.5 0.00 0.00 0.00 26 1024.7
20260830171102 67 44 0.0 2.6 0.00 0.00 0.00 29 1024.7
20260830170557 66 306 0.9 3.5 0.00 0.00 0.00 30 1024.6
20260830170108 65 0 1.7 3.5 0.00 0.00 0.00 30 1024.6
20260830165600 65 77 0.9 3.5 0.00 0.00 0.00 31 1024.5
20260830165058 65 52 0.0 2.6 0.00 0.00 0.00 36 1024.6
20260830164605 64 32 0.9 2.6 0.00 0.00 0.00 34 1024.6
20260830164058 63 0 0.0 1.7 0.00 0.00 0.00 39 1024.6
20260830163558 63 130 0.0 2.6 0.00 0.00 0.00 42 1024.6
20260830163108 62 113 0.0 2.6 0.00 0.00 0.00 45 1024.6
20260830162600 61 113 1.7 2.6 0.00 0.00 0.00 43 1024.7
20260830162100 62 95 0.9 1.7 0.00 0.00 0.00 43 1024.6
20260830161607 62 27 0.0 2.6 0.00 0.00 0.00 45 1024.6
20260830161102 60 319 0.0 3.5 0.00 0.00 0.00 49 1024.6
20260830160601 60 58 0.9 3.5 0.00 0.00 0.00 56 1024.6
20260830160115 59 46 0.9 2.6 0.00 0.00 0.00 55 1024.5
20260830155558 58 70 0.9 1.7 0.00 0.00 0.00 56 1024.5
20260830155058 57 108 0.0 1.7 0.00 0.00 0.00 57 1024.5
20260830154606 56 82 1.7 1.7 0.00 0.00 0.00 60 1024.5
20260830154102 55 94 0.0 2.6 0.00 0.00 0.00 67 1024.6
20260830153557 55 0 0.9 2.6 0.00 0.00 0.00 70 1024.7
20260830153108 54 61 1.7 2.6 0.00 0.00 0.00 71 1024.8
20260830152557 54 49 0.0 1.7 0.00 0.00 0.00 72 1024.9
20260830152058 53 0 0.0 0.9 0.00 0.00 0.00 73 1024.9
20260830151605 53 73 0.0 0.9 0.00 0.00 0.00 75 1024.9
20260830151058 52 58 0.0 0.9 0.00 0.00 0.00 76 1025.0
20260830150602 51 0 0.0 0.9 0.00 0.00 0.00 75 1024.9
20260830150121 51 0 0.0 0.9 0.00 0.00 0.00 76 1024.9
20260830145559 50 0 0.0 0.9 0.00 0.00 0.00 76 1025.0
20260830145058 50 6 0.0 0.0 0.00 0.00 0.00 77 1025.1
20260830144609 49 0 0.0 0.9 0.00 0.00 0.00 78 1024.9
20260830144058 48 0 0.0 0.9 0.00 0.00 0.00 78 1024.8
20260830143558 47 0 0.0 1.7 0.00 0.00 0.00 78 1024.7
20260830143107 45 0 0.0 2.6 0.00 0.00 0.00 83 1024.6
20260830142558 42 0 0.9 2.6 0.00 0.00 0.00 80 1024.7
20260830142058 41 193 0.9 2.6 0.00 0.00 0.00 83 1024.7
20260830141606 40 171 0.0 0.0 0.00 0.00 0.00 83 1024.7
20260830141058 40 0 0.0 0.9 0.00 0.00 0.00 78 1024.6
20260830140558 40 0 0.0 1.7 0.00 0.00 0.00 78 1024.4
20260830140105 40 181 0.0 1.7 0.00 0.00 0.00 82 1024.4
20260830135558 39 172 0.0 0.9 0.00 0.00 0.00 78 1024.5
20260830135102 40 0 0.0 0.0 0.00 0.00 0.00 76 1024.3
20260830134608 40 0 0.0 0.0 0.00 0.00 0.00 76 1024.3
20260830134057 40 0 0.0 0.9 0.00 0.00 0.00 78 1024.1
20260830133557 40 0 0.0 0.9 0.00 0.00 0.00 78 1024.2
20260830133108 40 194 0.0 0.9 0.00 0.00 0.00 77 1024.0
20260830132557 40 0 0.0 0.9 0.00 0.00 0.00 77 1023.8
20260830132058 40 0 0.0 2.6 0.00 0.00 0.00 78 1023.7
20260830131626 40 0 0.0 2.6 0.00 0.00 0.00 77 1023.7
20260830131058 40 179 1.7 2.6 0.00 0.00 0.00 77 1023.6
20260830130559 40 0 0.0 0.0 0.00 0.00 0.00 80 1023.7
20260830130109 40 0 0.0 0.0 0.00 0.00 0.00 80 1023.6
20260830125600 41 0 0.0 0.9 0.00 0.00 0.00 81 1023.6
20260830125058 41 0 0.0 0.9 0.00 0.00 0.00 79 1023.6
20260830124605 41 0 0.0 0.9 0.00 0.00 0.00 78 1023.6
20260830124058 42 0 0.0 0.9 0.00 0.00 0.00 78 1023.5
20260830123600 42 0 0.0 3.5 0.00 0.00 0.00 79 1023.5
20260830123109 41 0 0.0 3.5 0.00 0.00 0.00 79 1023.4
20260830122558 42 174 0.9 2.6 0.00 0.00 0.00 76 1023.5
20260830122058 42 0 0.0 1.7 0.00 0.00 0.00 78 1023.6
20260830121607 43 0 0.0 1.7 0.00 0.00 0.00 78 1023.6
20260830121058 42 183 0.0 1.7 0.00 0.00 0.00 81 1023.7
20260830120558 42 188 0.9 1.7 0.00 0.00 0.00 77 1023.7
20260830120107 42 0 0.0 0.9 0.00 0.00 0.00 77 1023.7
20260830115558 42 183 0.0 0.9 0.00 0.00 0.00 75 1023.7
20260830115058 43 0 0.0 0.9 0.00 0.00 0.00 78 1023.7
20260830114614 43 0 0.0 0.9 0.00 0.00 0.00 81 1023.7
20260830114057 43 0 0.0 0.9 0.00 0.00 0.00 77 1023.6
20260830113557 43 0 0.0 0.9 0.00 0.00 0.00 71 1023.7
20260830113108 43 0 0.0 0.9 0.00 0.00 0.00 71 1023.7
20260830112557 43 0 0.0 0.9 0.00 0.00 0.00 74 1023.8
20260830112058 43 0 0.0 0.9 0.00 0.00 0.00 71 1024.0
20260830111606 43 0 0.0 0.0 0.00 0.00 0.00 70 1023.9
20260830111059 43 0 0.0 0.9 0.00 0.00 0.00 72 1024.0
20260830110600 44 0 0.0 1.7 0.00 0.00 0.00 72 1023.9
20260830110104 43 0 0.0 1.7 0.00 0.00 0.00 72 1023.9